www.pogodaiklimat.ru

Погода и климат >> Архив погоды >> Индонезия >> Surabaya Perak


ПОГОДА в Surabaya Perak

  • Прогноз погоды в Surabaya Perak
  • Монитор погоды в Surabaya Perak
  • Климат города

АРХИВ ПОГОДЫ в Surabaya Perak

Время (UTC), дата Ветер
(напр.,м/с)
 
Видим.   Явления Облачность Т
(С)
Тd
(С)
f
(%)
Тe
(С)
Тes
(С)
Комфортность P
(гПа)
Po
(гПа)
Тmin
(С)
Tmax
(С)
R
(мм)
R24
(мм)
S
(см)
03 9.07 ЮВ 4 12 км 3/0
[Ci fib]
+30.2 +21.0 58 +38 +46 очень
душно
1012.1 1011.8
06 9.07 ЮВ 5 12 км ясно +32.8 +21.7 52 +41 +48 опасность
перегрева
1009.5 1009.1
09 9.07 В 5 12 км ясно +31.5 +21.3 55 +39 +41 очень
душно
1007.7 1007.3
12 9.07 В 5 8000 м ясно +28.6 +22.5 70 +38 +38 очень
душно
1009.1 1008.8 +33.4
15 9.07 В 3 8000 м ясно +27.6 +22.9 76 +37 +37 очень
душно
1010.4 1010.1
18 9.07 ЮЗ 1 8000 м ясно +25.2 +21.7 81 +32 +32 очень
душно
1010.3 1010.0
21 9.07 штиль 0 8000 м ясно +24.0 +21.3 85 +30 +30 очень
душно
1010.1 1009.7
00 10.07 штиль 0 8000 м 3/0
[Ci fib]
+23.7 +21.0 85 +30 +32 очень
душно
1012.0 1011.7 +23.3
03 10.07 В 6 10 км 4/1 600 м
[Cu hum Ci fib]
+30.4 +20.8 57 +38 +43 очень
душно
1011.3 1011.0
06 10.07 В 6 11 км 3/0
[Ci fib]
+33.2 +20.2 46 +39 +45 очень
душно
1009.0 1008.7
09 10.07 В 3 10 км 3/0
[Ci fib]
+31.4 +20.3 52 +38 +40 очень
душно
1008.2 1007.8
12 10.07 В 3 8000 м 5/0
[Ci fib]
+28.2 +22.7 72 +37 +37 очень
душно
1010.5 1010.2 +33.4
15 10.07 В 2 8000 м 5/0
[Ci fib]
+27.2 +22.2 74 +35 +35 очень
душно
1012.2 1011.9
18 10.07 штиль 0 8000 м 5/0
[Ci fib]
+24.8 +20.8 78 +31 +31 очень
душно
1012.1 1011.7
21 10.07 штиль 0 8000 м 5/0
[Ci fib]
+23.8 +20.3 81 +29 +29 душно 1011.6 1011.3
00 11.07 ЮЗ 2 9000 м 6/3 600 м
[Cu hum Ci fib]
+23.6 +20.4 82 +29 +31 душно 1013.0 1012.7 +23.0
03 11.07 штиль 0 10 км 8/0
[As trans Ci fib]
+29.5 +21.8 63 +38 +51 опасность
солнечного
удара
1012.7 1012.3
06 11.07 СВ 2 11 км 8/0
[As trans Ci fib]
+32.0 +21.0 52 +39 +48 очень
душно
1010.9 1010.6
09 11.07 В 4 11 км 4/0
[Ac trans Ci fib]
+31.2 +19.8 51 +37 +39 очень
душно
1009.3 1008.9
12 11.07 В 3 10 км 3/0
[Ac trans Ci fib]
+28.2 +20.3 62 +35 +35 очень
душно
1010.5 1010.2
15 11.07 В 2 9000 м 1/1 600 м
[Cu hum Ci fib]
+27.0 +21.6 72 +34 +34 очень
душно
1012.1 1011.8
18 11.07 штиль 0 9000 м 3/0
[Ci fib]
+25.0 +21.0 78 +31 +31 очень
душно
1011.9 1011.6
21 11.07 штиль 0 9000 м 3/0
[Ci fib]
+23.7 +20.4 82 +29 +29 душно 1011.1 1010.7
00 12.07 штиль 0 10 км 3/0
[Ci sp]
+23.2 +20.9 87 +31 +33 очень
душно
1011.9 1011.6 +22.8
03 12.07 ЮВ 2 12 км 4/0
[]
+30.8 +20.3 54 +38 +50 очень
душно
1011.5 1011.1
06 12.07 В 2 12 км 4/0
[Ci fib]
+33.2 +20.7 48 +40 +53 опасность
солнечного
удара
1009.6 1009.2
09 12.07 В 4 11 км 4/0
[Ci fib]
+32.1 +19.5 47 +38 +39 очень
душно
1008.5 1008.1
12 12.07 В 3 10 км 4/1 600 м
[Cu hum Ci fib]
+28.6 +22.5 70 +38 +38 очень
душно
1010.0 1009.7
15 12.07 ЮВ 3 8000 м 3/0
[Ci fib]
+27.3 +22.7 76 +36 +36 очень
душно
1011.6 1011.3
18 12.07 штиль 0 8000 м 3/0
[Ci fib]
+25.8 +21.3 76 +33 +33 очень
душно
1011.3 1011.0
21 12.07 штиль 0 8000 м 4/0
[Ci fib]
+23.6 +20.1 81 +29 +29 душно 1010.5 1010.2
00 13.07 Ю 2 9000 м 4/0
[Ci fib]
+23.6 +20.1 81 +29 +31 душно 1011.3 1011.0 +23.0
03 13.07 В 2 10 км 4/0
[Ci fib]
+30.0 +21.3 60 +38 +49 очень
душно
1011.4 1011.0
06 13.07 В 2 11 км 5/0
[Ci sp]
+32.6 +20.8 50 +40 +51 опасность
солнечного
удара
1009.3 1009.0
09 13.07 В 2 10 км 8/1 600 м
[Cu hum As op Ci fib]
+30.4 +20.5 55 +37 +38 очень
душно
1008.4 1008.1
12 13.07 ЮВ 2 9000 м 6/0
[As trans Ci fib]
+28.6 +22.2 68 +37 +37 очень
душно
1009.7 1009.4 +33.1
15 13.07 штиль 0 9000 м 5/0
[Ci fib]
+27.2 +22.3 75 +36 +36 очень
душно
1011.0 1010.6
18 13.07 штиль 0 9000 м 5/0
[Ci fib]
+24.4 +21.0 81 +31 +31 очень
душно
1011.2 1010.8
21 13.07 штиль 0 9000 м 4/0
[Ci fib]
+23.5 +20.3 82 +29 +29 душно 1010.8 1010.4
00 14.07 штиль 0 9000 м 4/0 <50 м
[Ci fib]
+23.2 +20.6 85 +31 +33 очень
душно
1011.3 1011.0 +22.6
03 14.07 ЮВ 3 11 км 4/0
[Ci fib]
+29.8 +20.1 56 +36 +47 очень
душно
1011.0 1010.7
06 14.07 СВ 5 12 км 4/1 600 м
[Cu hum Ci fib]
+32.4 +20.9 51 +40 +47 очень
душно
1009.0 1008.7
09 14.07 В 3 11 км 6/5 600 м
[Cu Sc Ci fib]
+31.0 +20.2 53 +38 +38 очень
душно
1007.9 1007.6
12 14.07 ЮВ 2 10 км 4/3 600 м
[Cu hum Ci fib]
+28.4 +21.7 67 +36 +36 очень
душно
1009.6 1009.2 +32.6
15 14.07 ЮВ 2 10 км 5/4 600 м
[Cu hum Ci fib]
+27.2 +20.3 66 +34 +34 очень
душно
1011.2 1010.9
18 14.07 штиль 0 9000 м 4/3 600 м
[Cu hum Ci fib]
+26.2 +20.5 71 +33 +33 очень
душно
1011.3 1011.0
21 14.07 штиль 0 9000 м 5/4 600 м
[Cu hum Ci fib]
+24.6 +20.3 77 +30 +30 очень
душно
1010.7 1010.4
00 15.07 штиль 0 9000 м 5/1 600 м
[Cu hum Ac trans Ci fib]
+24.0 +20.1 79 +30 +32 очень
душно
1012.2 1011.9 +23.0
03 15.07 ЮВ 4 11 км 4/1 600 м
[Cu hum Ac trans Ci fib]
+29.4 +20.1 57 +36 +43 очень
душно
1012.2 1011.9
06 15.07 В 3 12 км 3/3 600 м
[Cu hum]
+32.8 +19.7 46 +39 +47 очень
душно
1009.3 1009.0
09 15.07 В 2 10 км 4/0
[]
+30.2 +21.5 60 +38 +40 очень
душно
1008.4 1008.1
12 15.07 В 3 9000 м 6/3 600 м
[Cu hum Ac trans Ci sp]
+27.8 +20.4 64 +34 +34 очень
душно
1010.7 1010.4 +33.0
15 15.07 З 1 9000 м 4/0
[Ac trans Ci sp]
+26.4 +19.4 65 +32 +32 очень
душно
1011.9 1011.5
18 15.07 штиль 0 9000 м 3/0
[Ci fib]
+24.6 +20.3 77 +30 +30 очень
душно
1011.5 1011.2
21 15.07 штиль 0 9000 м 4/0
[Ci sp]
+23.6 +19.5 78 +29 +29 душно 1011.2 1010.8
00 16.07 штиль 0 8000 м ясно +22.8 +19.1 80 +29 +32 очень
душно
1011.9 1011.6 +22.5

 

Местоположение метеостанции Surabaya Perak (Индонезия): широта -7.22 долгота 112.71 высота над уровнем моря 3 м.

В архиве по умолчанию представлена погода в Surabaya Perak за последнюю неделю. Архивные данные за месяц целиком и за предыдущие месяцы, начиная с января 2011 года, Вы можете получить, выбрав интересующий диапазон дат из раскрывающегося списка и нажав кнопку "Ввод!".


*Определитесь, кто Вы:
робот инопланетянин человек

Внимание! Время в таблицах - всемирное. Для получения местного времени необходимо прибавить поправку, которая в Surabaya Perak равна 7 ч.

Смотрите также архив погоды в соседних городах и на ближайших метеорологических станциях:

Погода в Juanda Int Airport (Индонезия) (18 км)
Погода в Surabaya Gedangan (Индонезия) (110 км)
Погода в Kalianget (Индонезия) (139 км)
Погода в Sangkapura (Индонезия) (153 км)
Погода в Banyuwangi (Индонезия) (215 км)
Погода в Semarang (Индонезия) (255 км)
Погода в Achmad Yani Int Airport (Индонезия) (259 км)
Погода в Denpasar (Индонезия) (319 км)
Погода в Tegal (Индонезия) (395 км)
Погода в Mataram (Индонезия) (397 км)

Пояснения к столбцам:

Ветер - указаны скорость ветра в м/с - средняя за 10 мин, порывы в срок и между сроками (в фигурных скобках) и направление, откуда дует ветер: С - северный, СВ - северо-восточный, В - восточный, ЮВ - юго-восточный, Ю - южный, ЮЗ - юго-западный, З - западный, СЗ - северо-западный.
Видимость - горизонтальная дальность видимости в метрах или километрах. При видимости от 1 до 10 км при отсутствии осадков обычно наблюдается дымка, при ухудшении видимости до 1 км и менее - туман. В сухую погоду видимость может ухудшаться дымом, пылью или мглою.
Явления - указаны атмосферные явления, наблюдавшиеся в срок или в последний час перед сроком; фигурными скобками обозначены явления, наблюдавшиеся между сроками (за 1-3 часа до срока); квадратными скобками обозначены град или гололедные отложения с указанием их диаметра в мм.
Облачность - указаны через наклонную черту общая и нижняя облачность в баллах и высота нижней границы облаков в метрах; квадратными скобками обозначены формы облаков: Ci - перистые, Cs - перисто-слоистые, Cc - перисто-кучевые, Ac - высококучевые, As - высокослоистые, Sc - слоисто-кучевые, Ns - слоисто-дождевые, Cu - кучевые, Cb - кучево-дождевые. Подробнее классификацию облаков см. в Атласе облаков (PDF).
T - Температура воздуха - температура, измеренная на высоте 2 м над землей.
Td - Температура точки росы - температура, при понижении до которой содержащийся в воздухе водяной пар достигнет насыщения.
f - Относительная влажность воздуха - влажноcть воздуха, измеренная на высоте 2 м над землей.
Te - Эффективная температура - температура, которую ощущает одетый по сезону человек в тени. Характеристика душности погоды. При расчете учитывается влияние влажности воздуха и скорости ветра на теплоощущения человека.
Tes - Эффективная температура на солнце - температура, которую ощущает человек, с поправкой на солнечный нагрев. Характеристика знойности погоды. Зависит от высоты солнца над горизонтом, облачности и скорости ветра. Ночью, в пасмурную погоду, а также при ветре 12 м/с и более поправка равна нулю.
P - Атмосферное давление - приведенное к уровню моря атмосферное давление.
Po - Атмосферное давление - измеренное на уровне метеостанции атмосферное давление.
Tmin - Минимальная температура - минимум температуры воздуха на высоте 2 м над землей.
Tmax - Максимальная температура - максимум температуры воздуха на высоте 2 м над землей.
R - Количество осадков - Количество выпавших осадков за период времени, мм. При наведении курсора мыши на число - период времени, за который выпало указанное количество осадков.
R24 - Количество осадков - Количество выпавших осадков за 24 часа, мм.
S - Снежный покров - Высота снежного покрова, см. При наведении курсора мыши на число - состояние снежного покрова и степень покрытия местности в баллах.